Location: Caltech
(34.1382°N, 118.1253°W)
Time: 01:55:19
(UTC-08:00)

SO-50 - Visible Passes

Search period start: 28 February 2017 00:00
Search period end: 10 March 2017 00:00
Orbit: 618 x 670 km, 64.6° (Epoch: 27 February)

Date Brightness Start Highest point End Pass type
(mag) Time Alt. Az. Time Alt. Az. Time Alt. Az.
28 Feb ? 05:38:45 10° N 05:42:37 27° NE 05:46:27 10° ESE visible
02 Mar ? 04:49:31 10° N 04:52:46 19° NE 04:55:59 10° E visible
03 Mar ? 05:14:01 10° NNW 05:18:21 47° ENE 05:22:40 10° SE visible
03 Mar ? 19:24:29 10° S 19:27:01 27° SSE 19:27:01 27° SSE visible
04 Mar ? 04:00:37 10° NNE 04:02:51 13° NE 04:05:05 10° ENE visible
04 Mar ? 05:39:16 10° NW 05:43:42 62° WSW 05:48:06 10° SSE visible
04 Mar ? 19:49:21 10° SSW 19:53:47 76° WSW 19:53:47 76° WSW visible
05 Mar ? 04:24:33 10° N 04:28:34 31° NE 04:32:33 10° ESE visible
05 Mar ? 18:35:26 10° SSE 18:39:12 24° ESE 18:42:45 11° ENE visible
05 Mar ? 20:15:21 10° WSW 20:19:30 31° NW 20:20:32 28° NNW visible
06 Mar ? 04:49:30 10° NNW 04:54:00 84° ENE 04:58:29 10° SSE visible
06 Mar ? 18:59:42 10° SSW 19:04:20 67° ESE 19:08:58 10° NE visible
06 Mar ? 20:42:54 10° WNW 20:45:14 14° NW 20:47:07 11° NNW visible
07 Mar ? 03:37:28 19° NNE 03:38:43 22° NE 03:42:11 10° ESE visible
07 Mar ? 05:15:13 10° NW 05:19:13 33° WSW 05:23:14 10° S visible
07 Mar ? 19:25:13 10° SW 19:29:42 45° WNW 19:34:10 10° NNE visible
08 Mar ? 04:03:51 52° NE 04:04:17 54° ENE 04:08:39 10° SE visible
08 Mar ? 05:42:31 10° W 05:44:13 12° WSW 05:45:55 10° SW visible
08 Mar ? 19:51:58 10° W 19:55:19 19° NW 19:58:39 10° N visible
09 Mar ? 04:30:28 45° SSW 04:30:28 45° SSW 04:33:56 10° SSE visible
09 Mar ? 18:35:17 10° SW 18:39:57 70° WNW 18:44:35 10° NNE visible
